Location: La Brécinière
(48.1333°N, 1.0500°W)
Time: 12:16:06
(UTC+00:00)

Daily predictions for brighter satellites

Satellite Brightness Start Highest point End
(mag) Time Altitude Azimuth Time Altitude Azimuth Time Altitude Azimuth
Cosmos 1833 Rocket 3.1 20:36:57 10° S 20:42:12 42° ESE 20:47:28 10° NE
Cosmos 1703 3.8 20:40:56 10° SSE 20:44:30 37° E 20:48:05 10° NNE
RESURS DK-1 2.5 20:50:25 10° NNW 20:54:34 77° WSW 20:58:41 10° SSE
Cosmos 1867 4.4 20:54:39 10° NNW 20:59:53 44° NE 21:05:05 10° ESE
Cosmos 2084 Rocket 3.5 20:59:09 10° NW 21:03:01 62° NE 21:06:56 11° SE
X-37B 1.3 21:01:28 10° W 21:04:01 31° SSW 21:06:14 12° SE
SL-8 R/B 4.2 21:01:17 10° W 21:05:54 48° SSW 21:10:19 11° SE
Helios 1A Rocket 3.3 21:03:01 10° SE 21:06:58 49° ENE 21:10:57 10° N
Cosmos 1271 Rocket 4.3 21:05:23 10° NNW 21:09:01 35° W 21:12:35 10° SSW
Cosmos 1741 Rocket 4.3 21:04:10 10° NNW 21:09:30 72° WSW 21:14:48 10° SSE
IRAS Rocket 4.2 21:05:19 10° NNE 21:10:57 81° ESE 21:16:30 10° SSW
Cosmos 2154 Rocket 4.1 21:04:54 10° N 21:11:05 66° ENE 21:17:15 10° SSE
Cosmos 1455 3.8 21:10:12 10° NNW 21:13:40 33° W 21:17:06 10° SSW
Ariane Rocket 3.7 21:10:55 10° S 21:15:52 52° W 21:20:52 10° NNW
Cosmos 1328 4.4 21:13:36 10° SSE 21:17:16 39° E 21:21:00 10° NNE
Cosmos 2082 Rocket 2.9 21:13:07 10° S 21:18:14 35° ESE 21:23:22 10° NE
Cosmos 2360 4.3 21:12:45 10° NNW 21:18:32 85° WSW 21:23:52 12° SSE
SPOT 3 Rocket 3.8 21:15:52 10° S 21:21:03 72° WSW 21:26:18 10° NNW
CZ-2C R/B 4.2 21:16:59 10° NNE 21:21:19 41° E 21:25:23 11° SSE
Cosmos 2228 3.0 21:18:53 10° N 21:23:09 86° W 21:27:18 10° S
Cosmos 1892 Rocket 4.4 21:21:08 13° SSE 21:24:33 34° E 21:28:30 10° NNE
Cosmos 2360 Rocket 4.5 21:24:20 10° N 21:27:28 15° NE 21:30:37 10° ENE
USA 234 4.3 21:24:48 10° E 21:30:57 45° N 21:37:06 10° WNW
Cosmos 2058 Rocket 4.0 21:27:05 10° N 21:31:11 36° ENE 21:34:19 16° SE
Resurs 01 Rocket 3.7 21:27:38 10° SSW 21:31:15 24° W 21:34:54 10° NW
ATLAS 2AS CENTAUR R/B 4.4 21:27:36 10° WNW 21:32:50 23° WSW 21:37:51 10° SSW
Meteor 1-21 Rocket 4.2 21:31:46 10° S 21:37:23 88° E 21:43:08 10° NNE
CZ-4B R/B 3.8 21:37:24 10° NNW 21:39:37 20° WNW 21:41:49 10° WSW
Cosmos 1331 Rocket 4.2 21:35:41 10° SSW 21:40:59 77° WNW 21:46:19 10° NNE
SPOT 5 2.8 21:37:57 12° S 21:41:54 67° WSW 21:46:13 10° NNW
Terra 1.8 21:39:42 15° SSE 21:43:39 87° ENE 21:48:27 10° NNW
SJ 16-02 3.6 21:43:11 10° NNE 21:45:48 15° NE 21:48:24 10° E
Spot 2 Rocket 3.8 21:41:30 12° S 21:46:15 65° WSW 21:51:21 10° NNW
Cosmos 1892 3.5 21:44:17 20° SE 21:46:17 33° E 21:49:43 10° NNE
FALCON 9 DEB 3.4 21:44:13 10° WNW 21:47:28 60° NNE 21:50:08 14° E
ASTEX 1 3.9 21:50:48 10° NNE 21:55:37 44° E 21:58:44 20° SSE
Cosmos 1606 Rocket 3.9 21:52:22 10° NNW 21:56:38 60° W 22:00:09 15° S
USA 276 2.3 21:54:21 10° WNW 21:57:22 67° N 21:59:52 14° E
Cosmos 1697 Rocket 3.6 21:55:47 10° NW 22:01:01 41° WSW 22:05:32 13° S
Cosmos 1980 Rocket 2.3 21:55:44 10° NNW 22:01:26 77° WSW 22:05:29 20° SSE
ARIANE 5 R/B 2.6 21:58:45 19° SSE 22:01:53 84° WSW 22:06:19 10° NNW
GP-B 3.5 21:58:09 10° NNE 22:02:28 49° E 22:05:01 23° SSE
SL-16 R/B 3.2 21:57:25 10° NNW 22:02:41 37° NE 22:07:09 14° ESE
ERS-1 Rocket 3.7 22:02:19 13° S 22:06:37 49° W 22:11:31 10° NNW
Cosmos 2369 4.0 22:01:46 10° NNW 22:07:27 62° WSW 22:11:30 19° S
ATLAS 5 CENTAUR R/B 1.7 22:08:26 24° S 22:10:11 39° ESE 22:14:01 10° NE
Cosmos 2341 Rocket 4.0 22:04:39 10° N 22:11:01 85° E 22:15:35 20° S
Cosmos 1302 Rocket 4.0 22:07:03 10° SSW 22:12:15 83° WNW 22:17:29 10° NNE
COSMOS 2406 3.6 22:09:38 10° SW 22:15:23 68° WNW 22:21:09 10° NNE
In-Cosmos 22 Rocket 4.2 22:14:44 20° S 22:18:29 61° E 22:23:49 10° NNE
Cosmos 1726 Rocket 4.4 22:14:46 10° NNW 22:18:53 45° W 22:22:00 16° SSW
Cosmos 1408 2.5 22:19:29 23° SSW 22:21:30 73° W 22:24:57 10° N
Okean 1-7 Rocket 3.8 22:19:49 26° SSE 22:22:07 53° E 22:26:30 10° NNE
Cosmos 968 Rocket 4.0 22:18:06 10° NNW 22:23:09 52° WSW 22:26:32 20° S
Cosmos 1869 3.4 22:21:12 10° N 22:25:05 60° ENE 22:26:47 31° SSE
Cosmos 1833 Rocket 4.2 22:21:01 10° WSW 22:26:12 37° NW 22:31:25 10° NNE
Cosmos 1825 2.2 22:28:50 33° SSE 22:30:19 61° E 22:34:02 10° NNE
Meteor 1-27 4.2 22:26:05 10° N 22:31:42 84° E 22:35:01 25° SSE
Cosmos 1812 Rocket 4.1 22:32:50 10° N 22:37:11 48° ENE 22:39:08 28° SE
Cosmos 2322 Rocket 2.9 22:32:04 10° NNW 22:37:34 47° NE 22:41:25 19° ESE
Spot 4 4.4 22:35:11 25° SE 22:37:42 48° ENE 22:42:20 10° N
USA 267 3.4 22:32:12 10° ENE 22:38:31 49° SE 22:44:48 10° SSW
Cosmos 2181 Rocket 3.9 22:34:39 20° S 22:39:05 86° E 22:45:23 10° N
Cosmos-2242 3.7 22:37:24 10° N 22:41:27 41° ENE 22:43:11 27° SE
BREEZE-M DEB (TANK) 3.4 22:38:37 10° W 22:41:28 80° N 22:51:21 10° E
Cosmos 1932 4.4 22:35:46 10° SW 22:42:00 90° NW 22:48:23 10° NE
Cosmos 1821 Rocket 4.3 22:36:44 10° N 22:42:50 54° ENE 22:46:22 25° SE
Cosmos 1867 4.3 22:38:24 10° NW 22:43:29 40° WSW 22:46:12 24° S
Cosmos 2278 4.1 22:44:09 10° NW 22:49:43 55° WSW 22:52:47 26° S
Cosmos 1602 Rocket 3.6 22:48:54 34° SSE 22:50:33 60° E 22:54:49 10° NNE
SAR-Lupe-4 4.0 22:50:02 10° N 22:53:35 59° WNW 22:55:19 27° SW
Cosmos 2333 Rocket 3.7 22:50:21 10° NNW 22:55:26 30° NE 23:00:26 10° ESE
Cosmos 2082 Rocket 3.3 22:56:47 10° SW 23:02:13 44° NW 23:07:41 10° NNE
ALOS 2 3.1 23:00:42 30° SE 23:02:33 51° ENE 23:06:49 10° N
Gbstr 26 Del rocket 3.8 23:05:10 32° SE 23:05:10 32° SE 23:09:19 10° ENE
Nadezhda 3 Rocket 4.2 23:02:13 28° SSE 23:05:20 57° E 23:11:22 10° NNE
Cosmos 1340 Rocket 4.2 23:05:53 23° ESE 23:06:33 24° E 23:09:46 10° NE
Cosmos 1606 2.9 23:06:25 10° N 23:10:15 58° ENE 23:11:18 41° SE
Cosmos 2360 Rocket 2.6 23:07:12 10° NNW 23:12:48 56° ENE 23:16:15 23° SE
Cosmos 1626 Rocket 4.1 23:10:58 25° SW 23:13:15 53° WNW 23:17:32 10° N
Cosmos 1633 2.4 23:12:29 50° SSW 23:13:18 79° W 23:16:47 10° N
USA 234 3.4 23:07:03 10° ESE 23:13:33 78° NNE 23:20:07 10° NW
BREEZE-M DEB (TANK) 3.7 23:02:12 10° WSW 23:14:12 80° SSE 23:17:46 10° ENE
Terra 4.2 23:20:02 10° WSW 23:22:04 13° W 23:24:07 10° WNW
SJ 16-02 1.3 23:20:31 10° NNW 23:24:58 80° WSW 23:26:24 42° S
H-2A R/B 3.5 23:21:27 10° NNE 23:25:39 68° ESE 23:26:52 44° S
Cosmos 1825 Rocket 3.6 23:24:44 41° SSE 23:26:00 61° E 23:30:17 10° NNE
Cosmos 2058 3.0 23:28:04 44° SSE 23:29:09 61° E 23:33:18 10° NNE
Cosmos 2237 4.2 23:26:20 10° NNW 23:32:04 76° WSW 23:34:40 34° SSE
USA 276 3.7 23:30:11 10° W 23:31:40 23° W 23:31:40 23° W
Cosmos 2221 3.3 23:34:30 10° N 23:38:40 42° ENE 23:40:15 30° ESE
Meteor 2-2 Rocket 4.4 23:35:24 10° N 23:41:28 85° E 23:44:23 33° SSE
COSMOS 2428 4.1 23:36:54 10° NNW 23:42:06 34° NE 23:47:15 10° ESE
Cosmos 1980 Rocket 4.4 23:42:11 10° WNW 23:44:26 12° W 23:46:40 10° WSW
ISS -1.4 23:47:44 14° E 23:47:44 14° E 23:48:28 10° E
SL-16 R/B 2.8 23:41:32 10° NW 23:46:52 43° WSW 23:49:00 30° SSW
ADEOS Rocket 3.6 23:42:56 29° S 23:47:07 74° WSW 23:54:56 10° NNW
ERS-2 2.3 23:43:37 10° NNE 23:47:08 51° ESE 23:47:29 48° SE
COSMOS 2487 4.0 23:49:36 20° E 23:49:36 20° E 23:51:26 10° NE
Cosmos 2219 Rocket 2.9 23:43:42 10° NNW 23:49:13 49° NE 23:53:12 18° SE
SL-4 R/B 1.4 23:49:35 68° S 23:49:46 70° SSE 23:53:27 10° ENE
Cosmos 1934 Rocket 3.9 23:47:04 10° N 23:53:12 89° E 23:56:10 33° S
SL-27 R/B 3.7 23:53:43 27° E 23:53:43 27° E 23:56:16 10° NE
ATLAS 5 CENTAUR R/B 3.3 23:51:21 10° W 23:54:46 29° NW 23:58:39 10° NNE
